Retour au catalogue

SL-14 DEB

ActifPO
NORAD 25214·DEBRIS·🇷🇺 Russia

Lancé Aug 18, 1987 depuis Plesetsk Cosmodrome

Loading…

Prochains Passages (prochaines 24 heures)

TLE

FraisSource: Space-Track

Époque: Sep 13, 2026, 10:00 UTC

1 25214U 87068AR  26256.41676448  .00001564  00000-0  84190-3 0  9995
2 25214  82.5436  30.0786 0004920 249.7572 165.7838 14.12282989457313

Suivez SL-14 DEB en temps réel avec AllMySat

Download on the App Store